Regional Weather Roundup
Issued by NWS Newport/Morehead, NC

Current Version | Previous Version | Graphics & Text | Print | Product List | Glossary Off
Versions: 1 2 3 4 5 6 7 8 9 10 11 12 13 14 15 16 17 18 19 20 21 22 23 24 25 26 27 28 29 30 31 32 33 34 35 36 37 38 39 40 41 42 43 44 45 46 47 48 49 50

331
ASUS42 KMHX 011525
RWRMHX
WEATHER ROUNDUP FOR EASTERN NORTH CAROLINA
NATIONAL WEATHER SERVICE NEWPORT/MOREHEAD CITY NC
1100 AM EDT SUN MAY 01 2016

NOTE: "FAIR" INDICATES FEW OR NO CLOUDS BELOW 12,000 FEET
WITH NO SIGNIFICANT WEATHER AND/OR OBSTRUCTIONS TO VISIBILITY

NCZ015>017-031-032-045>047-102-103-011600-
NORTH COAST

CITY           SKY/WX    TMP DP  RH WIND       PRES   REMARKS
EDENTON        CLOUDY    67  63  86 SE5       30.12F
ELIZABETH CITY CLOUDY    64  58  80 E8        30.12F
KITTY HAWK     CLOUDY    73  62  68 E3        30.12S
MANTEO         NOT AVBL

$$

NCZ045>047-081-094-103-104-011600-
CENTRAL COAST

CITY           SKY/WX    TMP DP  RH WIND       PRES   REMARKS
FRISCO         PTSUNNY   71  62  73 S5        30.14S
SWANQUARTER    NOT AVBL

$$

NCZ095-097-098-100-101-011600-
SOUTHERN COAST

CITY           SKY/WX    TMP DP  RH WIND       PRES   REMARKS
BEAUFORT       CLOUDY    74  66  76 S9        30.14R
CEDAR ISLAND   NOT AVBL
JACKSONVILLE   MOSUNNY   74  65  73 VRB7      30.12F
PINEY ISLAND   NOT AVBL
WILMINGTON     CLOUDY    76  63  64 S12       30.12S


$$

NCZ011>013-027>030-043-044-078>080-089-090>093-098-011600-
COASTAL PLAIN

CITY           SKY/WX    TMP DP  RH WIND       PRES   REMARKS
AHOSKIE        CLOUDY    63  58  86 S8        30.11S
CLINTON        CLOUDY    71  66  83 S3        30.12S
ELIZABETHTOWN  LGT RAIN  72  65  79 S5        30.11S
GOLDSBORO      CLOUDY    70  70 100 VRB5      30.10S
GREENVILLE     CLOUDY    72  64  78 S10       30.13S
HAVELOCK       PTSUNNY   75  66  73 S16       30.13S
KENANSVILLE    PTSUNNY   72  64  75 S5        30.13S
KINSTON        MOSUNNY   70  63  78 S8        30.13S
NEW BERN       CLOUDY    75  65  70 S6        30.13S
RICHLANDS      CLOUDY    75  66  73 S16       30.12S
ROCKY MOUNT    CLOUDY    65  61  87 S7        30.11S
WASHINGTON     CLOUDY    70  63  79 S6        30.12F
WHITEVILLE     DRIZZLE   73  64  73 S8        30.11S

$$

AMZ130-135-150-152-154-156-158-170-250-252-270-ANZ085-086-088-633-658-670-011600-
MARINE OBSERVATIONS

STATION/POSITION TIME  TEMP    WIND        PRES    WAVE   SWELL
                       AIR SEA DIR/SP/G            HT/PER HT/PER
                 (UTC) (F)     (DEG/KT/KT) (MB)    (FT/S) (FT/S)
CHESAPEAKE LIGHT 1500   55     110/ 18/ 19 1019.9
64 E VA BEACH    1450   56 53   60/  4/  6 1020.6    5/ 9   5/ 9
DUCK             1500   63 66   90/  3/  3 1019.8
2 E DUCK         1411      59                N/A     4/10   2/11
OREGON INLET     1500   69 60  160/ 10/ 12 1020.0
13E OREGON INLT  1500      58                N/A     5/10   5/10
HATTERAS CG      1500   72 66  170/  6/  8 1020.3
DIAMOND BUOY     1450   73 74  180/ 12/ 14 1020.3    5/10   5/10
CAPE LOOKOUT     1500   69     160/  8/  8 1020.1
BEAUFORT LAB     1500   71 66  180/  8/  9 1019.7
30 SE NEW RVR IN 1425      69                N/A     4/10   2/11
27 SE WRIGHTSVLE 1508   73 71  220/ 10/ 14 1019.6
5 SE WRIGHTSVLE  1508   70 68  190/  4/  6 1021.2
225 S CAPE HAT   1450   72     120/ 14/ 17 1020.6    4/11   3/11
41 SE CHARLESTON 1450   75 72  170/ 10/ 12 1019.2    5/ 6   3/ 6

$$




USA.gov is the U.S. government's official web portal to all federal, state and local government web resources and services.